Regional Weather Roundup
Issued by NWS

Home | Current Version | Previous Version | Graphics & Text | Print | Product List | Glossary Off
Versions: 1 2 3 4 5 6 7 8 9 10 11 12 13 14 15 16 17 18 19 20 21 22 23 24 25 26 27 28 29 30 31 32 33 34 35 36 37 38 39 40 41 42 43 44 45 46 47 48 49 50

000
ASUS43 KMKX 091900
RWRWI

WISCONSIN REGIONAL WEATHER ROUNDUP
NATIONAL WEATHER SERVICE MILWAUKEE/SULLIVAN WI
100 PM CST TUE FEB 09 2016

NOTE: "FAIR" INDICATES FEW OR NO CLOUDS BELOW 12,000 FEET WITH NO
SIGNIFICANT WEATHER AND/OR OBSTRUCTIONS TO VISIBILITY.

WIZ001-002-006>008-014>016-023>028-092000-
NORTHWEST WISCONSIN

CITY           SKY/WX    TMP DP  RH WIND       PRES   REMARKS
SUPERIOR ARPT  SUNNY     10  -3  55 NW10      30.10F WCI  -3
ASHLAND        LGT SNOW  11   4  73 NW15      30.04F WCI  -5
HAYWARD        CLOUDY     8   0  69 N12G17    30.01S HAZE    WCI  -7
SIREN          SUNNY     12  -3  50 N14G20    30.06F WCI  -3
CUMBERLAND     SUNNY      9   0  66 NW18      30.00F WCI -10
RICE LAKE      SUNNY     10  -1  58 NW10G16   30.03F WCI  -3
CHETEK         MOSUNNY   10  -2  57 NW6       30.02S WCI   0
LADYSMITH      PTSUNNY   11   1  63 NW15      29.98F WCI  -5
EAU CLAIRE     NOT AVBL
MENOMONIE      SUNNY     13  -2  49 NW15      30.04F WCI  -2
NEW RICHMOND   SUNNY     12  -1  55 NW17      30.06F WCI  -5
OSCEOLA        SUNNY     14  -1  52 NW12G23   30.10F WCI   0
$$

WIZ003>005-009-010-017-018-092000-
NORTH CENTRAL WISCONSIN

CITY           SKY/WX    TMP DP  RH WIND       PRES   REMARKS
MANITOWISH WTR LGT SNOW  10   6  82 N15G25    29.86S VSB 3/4 WCI  -6
ARBOR VITAE    LGT SNOW  13   6  71 N21G30    29.85R WCI  -5
WOODRUFF       LGT SNOW  13   6  71 N21G30    29.85R WCI  -5
RHINELANDER    CLOUDY    13   3  64 N17G26    29.82S HAZE    WCI  -4
EAGLE RIVER    CLOUDY    12   3  66 N17G26    29.81S HAZE    WCI  -5
LAND O LAKES   LGT SNOW  11   4  71 N20G30    29.83R WCI  -7
PHILLIPS       CLOUDY     9   2  73 NW7G23    29.90S WCI  -3
TOMAHAWK       CLOUDY    13   3  64 N13G26    29.85S HAZE    WCI  -1
MEDFORD        CLOUDY    12   3  69 N18G25    29.88R HAZE    WCI  -6
MERRILL        CLOUDY    15   4  61 N17G23    29.85S WCI  -1
$$

WIZ029-030-035-036-043>047-092000-
CENTRAL WISCONSIN

CITY           SKY/WX    TMP DP  RH WIND       PRES   REMARKS
WAUSAU         CLOUDY    17   6  62 NW16G25   29.83S WCI   2
MOSINEE        NOT AVBL
MARSHFIELD     CLOUDY    13   3  64 NW25G32   29.87S WCI  -7
STEVENS POINT  LGT SNOW  13   6  73 NW12G17   29.85S WCI  -1
WAUPACA        CLOUDY    21   8  59 NW14G20   29.84S WCI   8
WAUTOMA        NOT AVBL
WISC RAPIDS    CLOUDY    14   3  61 NW22G31   29.89S WCI  -4
CAMP DOUGLAS   NOT AVBL
$$

WIZ011>013-019>022-031-037>040-048>050-092000-
NORTHEAST WISCONSIN

CITY           SKY/WX    TMP DP  RH WIND       PRES   REMARKS
ANTIGO         CLOUDY    13   6  73 N17G28    29.79S HAZE    WCI  -4
SHAWANO        CLOUDY    21   6  51 N10       29.82F WCI  10
OCONTO         CLOUDY    17   7  62 N10       29.81S WCI   5
STURGEON BAY   CLOUDY    18   7  62 NW20G25   29.79S WCI   1
GREEN BAY      MIX PCPN  18   8  65 NW17      29.81S WCI   3
MANITOWOC      NOT AVBL
APPLETON       PTSUNNY   18   7  62 NW14G23   29.80S WCI   4
CLINTONVILLE   CLOUDY    19   7  58 N10G18    29.83S WCI   8
OSHKOSH        CLOUDY    16   8  71 W13       29.82S WCI   2
$$

WIZ032>034-041-042-053>061-092000-
SOUTHWEST WISCONSIN

CITY           SKY/WX    TMP DP  RH WIND       PRES   REMARKS
LA CROSSE      SUNNY     13   0  56 NW16      30.01F WCI  -3
SPARTA         MOSUNNY   13   2  62 NW16G24   29.98F WCI  -3
VIROQUA        PTSUNNY   10   1  65 NW14      29.94S WCI  -6
BOSCOBEL       MOSUNNY   15   1  53 NW13G21   29.98F WCI   1
PRAIRIE DU CHI MOSUNNY   14   0  53 NW12G21   30.01S WCI   1
PLATTEVILLE    SUNNY     14   5  67 NW17      29.93S WCI  -2
$$

WIZ056-057-062-063-064-067-068-092000-
SOUTH CENTRAL WISCONSIN

CITY           SKY/WX    TMP DP  RH WIND       PRES   REMARKS
REEDSBURG      CLOUDY    13   2  63 NW14G22   29.91S WCI  -3
BARABOO/DELLS  CLOUDY    13   3  63 NW14G20   29.89S HAZE    WCI  -2
LONE ROCK      NOT AVBL
MINERAL POINT  MOSUNNY   14   5  67 NW15G21   29.90S WCI  -1
MADISON        CLOUDY    14   3  61 NW14G21   29.87F WCI  -1
MIDDLETON      CLOUDY    17   6  62 NW18G25   29.88S WCI   0
WATERTOWN      CLOUDY    16   7  67 NW12G21   29.84F WCI   3
MONROE         PTSUNNY   18   5  57 NW13G21   29.86S WCI   4
JANESVILLE     PTSUNNY   18   7  62 N20       29.86F WCI   1
$$

WIZ051-052-058>065-066-070>072-092000-
SOUTHEAST WISCONSIN

CITY           SKY/WX    TMP DP  RH WIND       PRES   REMARKS
MILWAUKEE      PTSUNNY   18   6  59 NW15      29.82S WCI   4
WAUKESHA       CLOUDY    14   7  73 NW17G29   29.82F WCI  -3
MILWAUKEE/TIMM CLOUDY    18   7  62 NW20      29.83S WCI   1
RACINE         CLOUDY    19   6  57 NW13      29.82F WCI   6
BURLINGTON     CLOUDY    15   5  65 NW13G21   29.83S WCI   1
KENOSHA        CLOUDY    18   8  65 NW12      29.82S WCI   5
FOND DU LAC    CLOUDY    16   7  67 NW16      29.83S WCI   1
SHEBOYGAN      CLOUDY    18   7  62 NW14G28   29.80S WCI   4
WEST BEND      CLOUDY    18   9  68 NW12G20   29.81S WCI   5
JUNEAU         CLOUDY    14   5  67 W12G17    29.85S WCI   0
$$

LSZ147-162-092000-
LAKE SUPERIOR

STATION/POSITION TIME  TEMP    WIND        PRES    WAVE
                       AIR SEA DIR/SP/G            HT/PER
                 (UTC) (F)     (DEG/KT/KT) (MB)    (FT/S)
DEVILS ISLAND    1800    9     330/ 18/ 22 1019.3F
SAXON HARBOR     1840   11                 1016.6S
$$

LMZ867-665-643>646-092000-
LAKE MICHIGAN

STATION/POSITION TIME  TEMP    WIND        PRES    WAVE
                       AIR SEA DIR/SP/G            HT/PER
                 (UTC) (F)     (DEG/KT/KT) (MB)    (FT/S)
CHAMBERS ISLAND  1800   18     310/ 19/ 24 1008.1F
ALGOMA LAKESHORE 1811          360/ 15/ 22   N/A
KEWAUNEE LAKESHO 1800   17     320/ 14/ 21 1008.0F
SHEBOYGAN LAKESH 1800   17     320/ 18/ 22 1010.5F
PORT WASHINGTON  1800   17     320/  9/ 20 1010.8
MILWAUKEE LAKESH 1810   17     310/ 14/ 18   N/A
KENOSHA   LAKESH 1800   17     310/ 15/ 18 1009.8F
$$

TC  - TEMPERATURE IN CELSIUS
VSB - VISIBILITY IN STATUTE MILES
WCI - WIND CHILL INDEX
HX  - HEAT INDEX




USA.gov is the U.S. government's official web portal to all federal, state and local government web resources and services.